Ephrata, WA

10:38 PM PDT on May 22, 2017 (GMT -0700)
Ephrata Municipal

Weather History for KEPH - May, 2013

Change the Weather History Date:

Friday, May 24, 2013

  Actual Average Record
Temperature  
Mean Temperature 52 °F 62 °F  
Max Temperature 60 °F 75 °F 93 °F (1958)
Min Temperature 43 °F 49 °F 33 °F (1989)
Degree Days  
Heating Degree Days 13 5  
Month to date heating degree days 116 183  
Since 1 July heating degree days 5439 5880  
Cooling Degree Days 0 2  
Month to date cooling degree days 57 22  
Year to date cooling degree days 57 24  
Moisture  
Dew Point 40 °F    
Average Humidity 68    
Maximum Humidity 89    
Minimum Humidity 47    
Precipitation  
Precipitation 0.02 in 0.02 in 0.39 in (1997)
Month to date precipitation 0.35 0.46  
Year to date precipitation 1.87 3.27  
Sea Level Pressure  
Sea Level Pressure 29.96 in    
Wind  
Wind Speed 5 mph (ESE)    
Max Wind Speed 13 mph    
Max Gust Speed 18 mph    
Visibility 10 miles    
Events Rain    
T = Trace of Precipitation, MM = Missing Value Source: NWS Daily Summary

Daily Weather History Graph

Daily Weather History Graph

Search for Another Location

Airport or City:

Trip Planner

Search our weather history database for the weather conditions in past years. The results will help you decide how hot, cold, wet, or windy it might be!

Date:

Astronomy

May. 24, 2013 Rise Set
Actual Time 5:11 AM PDT 8:38 PM PDT
Civil Twilight 4:33 AM PDT 9:16 PM PDT
Nautical Twilight 3:43 AM PDT 10:07 PM PDT
Astronomical Twilight 2:38 AM PDT 11:13 PM PDT
Moon 8:24 PM PDT (5/24) 4:51 AM PDT (5/24)
Length of Visible Light 16h 43m
Length of Day
15h 27m
Full, 100% of the Moon is Illuminated
May 24
Full
May 24
Full
May 31
Last Quarter
Jun 8
New
Jun 16
First Quarter

Hourly Weather History & Observations

Time (PDT) Temp. Windchill Dew Point Humidity Pressure Visibility Wind Dir Wind Speed Gust Speed Precip Events Conditions
12:53 AM 50.0 °F - 36.0 °F 59% 29.93 in 10.0 mi WNW 8.1 mph - N/A   Clear
1:53 AM 48.0 °F - 37.0 °F 66% 29.93 in 10.0 mi NNW 3.5 mph - N/A   Clear
2:53 AM 48.0 °F - 37.0 °F 66% 29.93 in 10.0 mi WNW 5.8 mph - N/A   Clear
3:53 AM 48.0 °F - 37.0 °F 66% 29.92 in 10.0 mi NW 9.2 mph - N/A   Overcast
4:53 AM 46.0 °F 41.4 °F 37.0 °F 71% 29.93 in 10.0 mi North 9.2 mph - N/A   Clear
5:53 AM 45.0 °F 41.8 °F 37.0 °F 74% 29.93 in 10.0 mi NNE 5.8 mph - N/A   Mostly Cloudy
6:53 AM 46.9 °F - 39.0 °F 74% 29.93 in 10.0 mi NNE 9.2 mph - N/A   Scattered Clouds
7:53 AM 46.9 °F - 35.1 °F 63% 29.94 in 10.0 mi ENE 10.4 mph - N/A   Mostly Cloudy
8:53 AM 48.0 °F - 37.0 °F 66% 29.96 in 10.0 mi East 6.9 mph - 0.00 in Rain Light Rain
9:53 AM 48.0 °F - 39.9 °F 74% 29.96 in 10.0 mi Calm Calm - 0.00 in Rain Light Rain
10:53 AM 46.9 °F - 41.0 °F 80% 29.97 in 10.0 mi SE 4.6 mph - 0.02 in   Overcast
11:53 AM 48.9 °F - 42.1 °F 77% 29.98 in 10.0 mi Calm Calm - 0.00 in Rain Light Rain
12:33 PM 51.8 °F - 42.8 °F 71% 29.96 in 10.0 mi SE 4.6 mph - 0.00 in   Overcast
12:53 PM 53.1 °F - 43.0 °F 69% 29.97 in 10.0 mi Variable 3.5 mph - 0.00 in   Overcast
1:03 PM 53.6 °F - 42.8 °F 67% 29.96 in 10.0 mi ESE 8.1 mph - N/A   Overcast
1:11 PM 53.6 °F - 42.8 °F 67% 29.96 in 10.0 mi ESE 3.5 mph - N/A   Overcast
1:53 PM 54.0 °F - 42.1 °F 64% 29.97 in 10.0 mi Variable 6.9 mph - N/A   Overcast
2:06 PM 53.6 °F - 42.8 °F 67% 29.96 in 10.0 mi SSE 9.2 mph - N/A   Overcast
2:20 PM 53.6 °F - 42.8 °F 67% 29.96 in 10.0 mi South 8.1 mph - N/A   Overcast
2:53 PM 55.0 °F - 42.1 °F 62% 29.96 in 10.0 mi Variable 4.6 mph - N/A   Mostly Cloudy
3:31 PM 57.2 °F - 42.8 °F 59% 29.95 in 10.0 mi SSE 6.9 mph - N/A   Overcast
3:53 PM 57.0 °F - 41.0 °F 55% 29.97 in 10.0 mi South 6.9 mph 18.4 mph N/A   Mostly Cloudy
4:53 PM 57.0 °F - 39.9 °F 53% 29.97 in 10.0 mi Variable 3.5 mph - N/A   Mostly Cloudy
5:53 PM 57.9 °F - 39.0 °F 49% 29.97 in 10.0 mi Variable 3.5 mph - N/A   Scattered Clouds
6:53 PM 57.0 °F - 37.0 °F 47% 29.98 in 10.0 mi NNW 4.6 mph - N/A   Clear
7:53 PM 55.9 °F - 39.9 °F 55% 29.97 in 10.0 mi ESE 3.5 mph - N/A   Clear
8:53 PM 48.9 °F - 41.0 °F 74% 29.98 in 10.0 mi SSW 4.6 mph - N/A   Clear
9:53 PM 48.0 °F - 39.9 °F 74% 29.99 in 10.0 mi Calm Calm - N/A   Clear
10:53 PM 43.0 °F 40.3 °F 39.0 °F 86% 29.99 in 10.0 mi SSW 4.6 mph - N/A   Clear
11:53 PM 46.9 °F - 41.0 °F 80% 29.99 in 10.0 mi Calm Calm - N/A   Clear